Location: Boissi�res
(45.2500°N, 2.3667°E)
Time: 21:30:45
(UTC+00:00)

OBJECT-B - Pass Details

Date: 03 March 2021
Orbit: 414 x 427 km, 97.0° (Epoch: 11 April)

Event Time Altitude Azimuth Distance (km) Brightness Sun altitude
Exits shadow 19:38:15 30° 1° (N) 784 2.2 -21.4°
Drops below altitude 10° 19:40:03 10° 353° (N) 1,514 3.8 -21.7°
Sets 19:42:04 0° 351° (N) 2,381 4.9 -22.0°
